Regional Weather Roundup
Issued by NWS

Home | Current Version | Previous Version | Graphics & Text | Print | Product List | Glossary On
Versions: 1 2 3 4 5 6 7 8 9 10 11 12 13 14 15 16 17 18 19 20 21 22 23 24 25 26 27 28 29 30 31 32 33 34 35 36 37 38 39 40 41 42 43 44 45 46 47 48 49 50
000
ASUS43 KLOT 222100
RWRIL

ILLINOIS REGIONAL WEATHER ROUNDUP
NATIONAL WEATHER SERVICE CHICAGO/ROMEOVILLE IL
400 PM CDT TUE JUL 22 2014

NOTE: "FAIR" INDICATES FEW OR NO CLOUDS BELOW 12,000 FEET WITH NO
SIGNIFICANT WEATHER AND/OR OBSTRUCTIONS TO VISIBILITY.

* THESE STATIONS ARE NOT UNDER NWS QUALITY CONTROL. THEY ALSO MAY NOT
  REPORT WEATHER SUCH AS PRECIPITATION OR FOG.

ILZ001-002-007-009-015-016-024-222200-
NORTHWEST ILLINOIS

CITY           SKY/WX    TMP DP  RH WIND       PRES   REMARKS
MOLINE         MOSUNNY   86  76  71 SW9       29.95F HX  96
STERLING*      MOSUNNY   91  79  66 W10       29.96S HX 107
$$

ILZ003-004-008-010-011-017-018-222200-
NORTH CENTRAL ILLINOIS

CITY           SKY/WX    TMP DP  RH WIND       PRES   REMARKS
ROCKFORD       MOSUNNY   90  77  65 W7        29.95F HX 103
FREEPORT*      MOSUNNY   84  77  79 W8        29.98R HX  94
$$

ILZ005-006-012>014-019>023-222200-
NORTHEAST ILLINOIS

CITY           SKY/WX    TMP DP  RH WIND       PRES   REMARKS
CHICAGO-OHARE  PTSUNNY   90  71  53 SW16      29.93S HX  96
CHICAGO-MIDWAY MOSUNNY   90  73  57 SW16G25   29.93F HX  98
AURORA         MOSUNNY   89  73  59 SW15      29.97R HX  97
LANSING*       MOSUNNY   87  70  57 S17       29.95F HX  91
WAUKEGAN       MOSUNNY   88  73  61 SW9G18    29.93R HX  95
DUPAGE AIRPORT MOSUNNY   89  74  60 SW17      29.96R HX  98
WHEELING       PTSUNNY   89  72  56 SW16G23   29.95R HX  96
NORTHERLY ISL    N/A     87  69  54 S21         N/A  HX  91
$$

LMZ740>746-222200-
SOUTHERN LAKE MICHIGAN

STATION/POSITION SKY/WX   TEMP    WIND        PRES    VSBY  WAVE
                          AIR SEA DIR/SP/G                  HT/PER
                          (F)     (DEG/KT/KT) (MB)    (MI)  (FT/S)
SOUTHERN BUOY              73 68  180/ 16/ 17 1012.7F         2/ 4
WAUKEGAN HARBOR            86     240/ 17/ 20 1013.5R
HARRISON CRIB              83     190/ 19/ 23   N/A
BURNHAM HARBOR             87     190/ 16/ 18   N/A
CALUMET HARBOR             86     200/ 12/ 18 1012.8F
BURNS HARBOR               85     200/ 16/ 21 1014.6S
MICHIGAN CITY              84     170/ 15/ 19   N/A
$$

ILZ025>027-034>036-040-047-049-050-058-095>099-222200-
WEST-CENTRAL ILLINOIS

CITY           SKY/WX    TMP DP  RH WIND       PRES   REMARKS
QUINCY         PTSUNNY   84  76  76 S8        29.99S HX  93
MACOMB*        CLOUDY    81  75  82 CALM      30.04R HX  86
$$

ILZ028>032-037-038-041>044-048-051>054-059>061-222200-
CENTRAL ILLINOIS

CITY           SKY/WX    TMP DP  RH WIND       PRES   REMARKS
PONTIAC        SUNNY     88  75  66 SW13G18   29.98S HX  97
PEORIA         PTSUNNY   87  73  62 SW10      29.99S HX  94
SPRINGFIELD    PTSUNNY   87  74  64 SW8       30.02S HX  95
TAYLORVILLE    NOT AVBL
$$

ILZ033-039-045-046-055>057-062-063-222200-
EAST-CENTRAL ILLINOIS

CITY           SKY/WX    TMP DP  RH WIND       PRES   REMARKS
CHAMPAIGN      SUNNY     86  70  58 S10       30.02S HX  90
MATTOON        SUNNY     85  67  54 S10       30.01F HX  87
$$

ILZ079-100>102-222200-
SOUTHWEST ILLINOIS

CITY           SKY/WX    TMP DP  RH WIND       PRES   REMARKS
ALTON          PTSUNNY   88  75  66 S12       30.01R HX  97
CAHOKIA*       PTSUNNY   90  70  51 S10       30.00F HX  95
SPARTA*        MOSUNNY   86  68  54 S12       30.03F HX  89
$$

ILZ064>066-069>071-074>076-080>082-084>086-088>090-092>094-222200-
SOUTH-CENTRAL ILLINOIS

CITY           SKY/WX    TMP DP  RH WIND       PRES   REMARKS
CARBONDALE     SUNNY     87  68  52 SW10      30.05F HX  90
MARION         SUNNY     90  70  51 S7        30.06F HX  95
MT. VERNON     SUNNY     88  70  55 S12       30.05F HX  92
$$

ILZ067-068-072-073-078-083-087-091-222200-
SOUTHEAST ILLINOIS

CITY           SKY/WX    TMP DP  RH WIND       PRES   REMARKS
HARRISBURG*    SUNNY     88  67  48 SW6       30.06F HX  91
$$

ABBREVIATIONS USED IN REMARKS
   TC - TEMPERATURE IN CELSIUS
  WCI - WIND CHILL INDEX
   HX - HEAT INDEX
  VSB - VISIBILITY
$$




USA.gov is the U.S. government's official web portal to all federal, state and local government web resources and services.